Location: Boulin
(43.2500°N, 0.1333°E)
Time: 15:53:02
(UTC+00:00)

NOAA 6 - Visible Passes

Search period start: 16 March 2026 00:00
Search period end: 26 March 2026 00:00
Orbit: 766 x 781 km, 98.6° (Epoch: 16 March)

Date Brightness Start Highest point End Pass type
(mag) Time Alt. Az. Time Alt. Az. Time Alt. Az.
16 Mar 5.2 19:20:15 10° S 19:25:10 46° W 19:30:08 10° NNW visible
17 Mar 4.0 18:45:39 10° SSE 18:50:48 86° ENE 18:55:58 10° NNW visible
17 Mar 7.1 20:28:52 10° WSW 20:30:35 12° W 20:32:19 10° WNW visible
18 Mar 6.3 19:51:43 10° SSW 19:55:53 25° W 20:00:03 10° NW visible
19 Mar 5.0 19:16:22 10° S 19:21:21 50° W 19:26:21 10° NNW visible
20 Mar 4.0 18:41:51 10° SSE 18:46:59 80° ENE 18:52:08 10° NNW visible
20 Mar 7.0 20:24:29 10° WSW 20:26:43 13° W 20:28:56 10° WNW visible
21 Mar 6.2 19:47:44 10° SSW 19:52:01 26° W 19:56:20 10° NW visible
22 Mar 4.8 19:12:29 10° S 19:17:30 54° W 19:22:33 10° NNW visible
23 Mar 4.0 18:38:03 10° SSE 18:43:10 74° ENE 18:48:18 10° N visible
23 Mar 6.9 20:20:15 10° WSW 20:22:51 14° W 20:25:28 10° WNW visible
24 Mar 6.0 19:43:46 10° SSW 19:48:10 29° W 19:52:36 10° NW visible
25 Mar 4.7 19:08:37 10° S 19:13:40 59° W 19:18:45 10° NNW visible
